Regional Weather Roundup
Issued by NWS

Home | Current Version | Previous Version | Graphics & Text | Print | Product List | Glossary On
Versions: 1 2 3 4 5 6 7 8 9 10 11 12 13 14 15 16 17 18 19 20 21 22 23 24 25 26 27 28 29 30 31 32 33 34 35 36 37 38 39 40 41 42 43 44 45 46 47 48 49 50
000
ASUS43 KLMK 050002
RWRKY
KENTUCKY REGIONAL WEATHER ROUNDUP
NATIONAL WEATHER SERVICE LOUISVILLE KY
700 PM EST SUN DEC 04 2016

NOTE "FAIR" INDICATES FEW OR NO CLOUDS BELOW 12,000 FEET
WITH NO SIGNIFICANT WEATHER AND/OR OBSTRUCTIONS TO VISIBILITY.

KYZ001>023-026-027-061>063-070>075-050100-
WESTERN AND SOUTH CENTRAL KENTUCKY

CITY           SKY/WX    TMP DP  RH WIND       PRES   REMARKS
PADUCAH        CLOUDY    42  39  89 W7        29.99R
HENDERSON      CLOUDY    43  37  81 W9        29.96R
OWENSBORO      CLOUDY    45  43  93 W7        29.96R
HOPKINSVILLE   CLOUDY    45  45 100 SW6       29.97R
BOWLING GREEN  CLOUDY    48  46  93 W6        29.97R
GLASGOW        NOT AVBL
$$

KYZ024-025-028>034-038-045-046-053-050100-
NORTH CENTRAL KENTUCKY

CITY           SKY/WX    TMP DP  RH WIND       PRES   REMARKS
LOUISVILLE/SDF LGT RAIN  47  44  90 SW6       29.91S FOG
LOUISVILLE/LOU LGT RAIN  46  44  93 S7        29.92S FOG
FORT KNOX      DRIZZLE   45  45  99 SW10      29.90S FOG
$$

KYZ035>037-039>044-047>052-055>060-089>105-050100-
NORTHEAST KENTUCKY

CITY           SKY/WX    TMP DP  RH WIND       PRES   REMARKS
LEXINGTON      LGT RAIN  45  43  93 SW8       29.91F FOG
COVINGTON      LGT RAIN  41  40  96 SE6       29.88F FOG
FRANKFORT      CLOUDY    46  43  89 S6        29.90S FOG
$$

KYZ054-064>069-076>088-106>120-050100-
SOUTHEAST KENTUCKY

CITY           SKY/WX    TMP DP  RH WIND       PRES   REMARKS
JACKSON        FOG       42  41  96 CALM      29.91S VSB 1/2
LONDON         LGT RAIN  46  43  89 SW7       29.94R FOG
SOMERSET       DRIZZLE   45  45 100 SW5       29.96R
MIDDLESBORO    CLOUDY    45  45  99 CALM      29.97S FOG
MONTICELLO     LGT RAIN  47  46  97 W12       29.97R FOG
$$




USA.gov is the U.S. government's official web portal to all federal, state and local government web resources and services.